パンスターズ彗星

C/2021 J2 ( PanSTARRS )

English version
Home page
Updated on March 5, 2023

---------------------------------------------------------------------

・ プロフィール

発見日 2021年5月10日
発見光度 22.0等
発見者 Pan-STARRS 1 telescope (Haleakala)

・ 軌道要素

Epoch 2023 Feb. 25.0 TT = JDT 2460000.5
T 2021 Sept. 22.26821 TT                                Rudenko
q   4.7054225            (2000.0)            P               Q
z  +0.0084913      Peri.  172.02986     -0.85907883     -0.48627068
 +/-0.0000009      Node    23.33488     -0.48904134     +0.87192482
e   0.9600449      Incl.  156.21306     -0.15106997     -0.05734055
>From 201 observations 2021 Mar. 20-2022 Dec. 21, mean residual 0".5.

・ 光度変化

        m1 = 2.2 + 5 logΔ + 20.0 log r(t - 350)

---------------------------------------------------------------------

軌道要素はM.P.E.C. 2022-Y114に掲載されたものです。
光度グラフはComet for Windowsで作成したものです。

---------------------------------------------------------------------

Copyright(C) Seiichi Yoshida (comet@aerith.net). All rights reserved.